DW5251 Weather Reports


time (UTC)temp
F
wind
direction
speed
knots
gust
knots
rain 1hr
in
rain 24hr
in
rain mn
in
humidity
%
barometer
mb
20181212221558 28 0 0.9 1.7 0.00 0.04 0.04 90 1019.7
20181212220557 28 0 0.9 2.6 0.00 0.04 0.04 90 1019.7
20181212220059 28 0 1.7 2.6 0.00 0.04 0.04 90 1019.7
20181212215557 28 0 1.7 2.6 0.00 0.04 0.04 90 1019.7
20181212215057 28 0 1.7 1.7 0.00 0.04 0.04 90 1019.6
20181212214557 29 0 0.9 1.7 0.00 0.04 0.04 90 1019.6
20181212213556 29 0 1.7 1.7 0.00 0.04 0.04 90 1019.7
20181212212057 29 0 0.9 1.7 0.00 0.04 0.04 91 1019.6
20181212211558 29 0 0.9 2.6 0.00 0.04 0.04 91 1019.5
20181212211057 29 0 0.9 2.6 0.00 0.04 0.04 91 1019.4
20181212210556 29 0 1.7 2.6 0.00 0.04 0.04 91 1019.4
20181212210059 29 0 1.7 2.6 0.00 0.04 0.04 91 1019.4
20181212205557 29 0 1.7 2.6 0.00 0.04 0.04 91 1019.4
20181212204558 29 0 1.7 1.7 0.00 0.04 0.04 91 1019.5
20181212203557 29 0 0.9 1.7 0.00 0.04 0.04 91 1019.5
20181212203058 29 0 0.9 2.6 0.00 0.04 0.04 91 1019.6
20181212202057 29 0 1.7 1.7 0.00 0.04 0.04 91 1019.6
20181212201057 29 0 0.0 0.9 0.00 0.04 0.04 90 1019.4
20181212200100 30 0 0.9 0.9 0.00 0.05 0.04 90 1019.4
20181212195557 30 0 0.0 1.7 0.00 0.05 0.04 90 1019.4
20181212195057 30 0 0.9 1.7 0.00 0.05 0.04 89 1019.4
20181212194057 30 0 0.0 0.0 0.00 0.05 0.04 89 1019.5
20181212193557 30 0 0.0 0.9 0.00 0.05 0.04 88 1019.4
20181212192557 30 0 0.9 1.7 0.00 0.06 0.04 88 1019.4
20181212191558 31 0 0.9 1.7 0.00 0.06 0.04 88 1019.4
20181212191057 31 0 0.9 1.7 0.00 0.06 0.04 88 1019.4
20181212190557 31 0 0.9 1.7 0.00 0.06 0.04 87 1019.4
20181212190059 31 0 0.9 1.7 0.00 0.06 0.04 87 1019.3
20181212182557 33 0 0.9 1.7 0.00 0.10 0.04 84 1019.1
20181212181559 33 0 1.7 4.3 0.00 0.10 0.04 84 1019.1
20181212180557 33 0 0.9 1.7 0.00 0.10 0.03 84 1019.1
20181212180059 33 0 1.7 1.7 0.00 0.11 0.03 84 1019.0
20181212175557 33 0 0.9 2.6 0.00 0.11 0.03 84 1019.0
20181212175057 34 0 0.9 2.6 0.00 0.11 0.03 83 1019.0
20181212174558 34 0 1.7 2.6 0.00 0.11 0.03 83 1019.0
20181212174057 34 0 0.9 2.6 0.00 0.12 0.03 83 1018.9
20181212173557 34 0 1.7 2.6 0.00 0.12 0.03 83 1019.0
20181212172557 34 0 0.9 1.7 0.00 0.13 0.03 83 1019.0
20181212172057 34 0 0.9 1.7 0.00 0.13 0.03 82 1019.0
20181212171557 34 0 0.9 2.6 0.00 0.14 0.03 82 1018.9
20181212171057 35 0 1.7 2.6 0.00 0.14 0.03 82 1018.9
20181212165557 35 0 0.9 1.7 0.00 0.16 0.03 82 1018.8
20181212165058 35 0 1.7 1.7 0.00 0.16 0.03 81 1018.8
20181212164558 35 0 0.9 1.7 0.00 0.17 0.03 81 1018.8
20181212164057 35 0 0.9 1.7 0.00 0.17 0.03 80 1018.8
20181212163557 35 0 0.9 1.7 0.00 0.17 0.03 80 1018.8
20181212163058 35 0 0.9 2.6 0.00 0.17 0.03 79 1018.8
20181212162057 36 0 0.9 2.6 0.00 0.18 0.03 79 1018.8
20181212161558 36 0 0.9 1.7 0.00 0.19 0.03 79 1018.8
20181212161057 36 0 0.9 1.7 0.00 0.19 0.03 80 1018.8
20181212160557 36 0 0.9 1.7 0.00 0.20 0.03 80 1018.8
20181212160100 36 0 0.9 1.7 0.00 0.21 0.03 79 1018.9
20181212155557 36 0 0.9 1.7 0.00 0.21 0.03 79 1018.9
20181212155057 36 0 0.9 1.7 0.00 0.21 0.03 78 1018.9
20181212154558 36 0 0.9 1.7 0.00 0.22 0.03 78 1018.9
20181212154058 36 0 0.0 1.7 0.00 0.23 0.03 78 1018.8
20181212153059 37 0 0.9 2.6 0.00 0.24 0.03 78 1018.9
20181212152058 36 0 0.9 1.7 0.00 0.25 0.03 79 1018.8
20181212151558 36 0 0.9 1.7 0.03 0.26 0.03 78 1018.8
20181212151058 37 0 0.9 1.7 0.03 0.26 0.03 78 1018.8
20181212150557 37 0 0.9 2.6 0.03 0.26 0.03 78 1018.8
20181212150059 37 0 1.7 4.3 0.03 0.27 0.03 77 1018.8
20181212144057 37 0 2.6 5.2 0.03 0.28 0.03 76 1018.7
20181212143058 37 0 0.9 4.3 0.03 0.29 0.03 75 1018.7
20181212142558 37 0 2.6 5.2 0.03 0.29 0.03 75 1018.7
20181212142058 37 0 2.6 5.2 0.03 0.29 0.03 76 1018.8
20181212141558 37 0 2.6 5.2 0.00 0.26 0.00 75 1018.8
20181212141058 37 0 1.7 5.2 0.00 0.26 0.00 74 1018.8
20181212140558 37 0 2.6 5.2 0.00 0.26 0.00 74 1018.7
20181212140100 37 0 1.7 6.1 0.00 0.26 0.00 74 1018.6
20181212135557 38 0 2.6 6.1 0.00 0.26 0.00 73 1018.6
20181212135057 38 0 4.3 6.1 0.00 0.26 0.00 74 1018.6
20181212134558 38 0 4.3 6.1 0.00 0.26 0.00 74 1018.5
20181212134057 38 0 3.5 7.0 0.00 0.27 0.00 74 1018.5
20181212133557 38 0 4.3 8.7 0.00 0.27 0.00 73 1018.5
20181212133058 38 0 2.6 8.7 0.00 0.27 0.00 74 1018.4
20181212132557 38 0 3.5 7.8 0.00 0.28 0.00 74 1018.4
20181212132058 38 0 2.6 7.0 0.00 0.28 0.00 74 1018.4
20181212131558 38 0 3.5 6.1 0.00 0.28 0.00 75 1018.4
20181212130557 38 0 1.7 5.2 0.00 0.28 0.00 75 1018.4
20181212130100 38 0 2.6 5.2 0.00 0.28 0.00 75 1018.4
20181212125558 38 0 2.6 6.1 0.00 0.28 0.00 75 1018.4
20181212125058 38 0 2.6 7.8 0.00 0.28 0.00 74 1018.4
20181212124058 38 0 2.6 7.0 0.00 0.28 0.00 74 1018.3
20181212123558 38 0 1.7 7.0 0.00 0.28 0.00 73 1018.4
20181212123058 38 0 2.6 7.8 0.00 0.28 0.00 73 1018.4
20181212122557 38 0 2.6 10.4 0.00 0.28 0.00 72 1018.3
20181212121558 39 0 5.2 10.4 0.00 0.28 0.00 70 1018.5
20181212121101 40 0 5.2 10.4 0.00 0.28 0.00 70 1018.4
20181212120558 40 0 7.0 10.4 0.00 0.28 0.00 69 1018.4
20181212120100 40 0 4.3 8.7 0.00 0.29 0.00 70 1018.4
20181212115058 41 0 4.3 8.7 0.00 0.29 0.00 70 1018.4
20181212113059 40 0 2.6 4.3 0.00 0.30 0.00 71 1018.3
20181212112558 40 0 2.6 5.2 0.00 0.30 0.00 72 1018.3
20181212112057 40 0 2.6 5.2 0.00 0.30 0.00 71 1018.4
20181212111057 39 0 2.6 6.1 0.00 0.31 0.00 72 1018.3
20181212110558 39 0 3.5 6.1 0.00 0.31 0.00 73 1018.3
20181212105557 38 0 1.7 6.1 0.00 0.31 0.00 77 1018.2
20181212105058 38 0 3.5 6.1 0.00 0.32 0.00 76 1018.1
20181212104558 38 0 3.5 6.1 0.00 0.32 0.00 75 1018.1
20181212104057 39 0 3.5 6.1 0.00 0.32 0.00 73 1018.2
20181212103058 39 0 1.7 6.1 0.00 0.32 0.00 73 1018.3
20181212102058 39 0 4.3 7.0 0.00 0.32 0.00 72 1018.4
20181212101559 39 0 2.6 7.0 0.00 0.32 0.00 75 1018.3
20181212101057 38 0 4.3 6.1 0.00 0.32 0.00 74 1018.3
20181212100558 38 0 2.6 7.8 0.00 0.32 0.00 75 1018.2
20181212100101 38 0 2.6 7.8 0.00 0.32 0.00 75 1018.3
20181212095557 38 0 4.3 8.7 0.00 0.32 0.00 75 1018.3
20181212095057 38 0 3.5 8.7 0.00 0.32 0.00 75 1018.4
20181212094558 38 0 5.2 8.7 0.00 0.32 0.00 74 1018.5
20181212094058 39 0 4.3 7.8 0.00 0.32 0.00 74 1018.5
20181212093059 38 0 3.5 8.7 0.00 0.32 0.00 74 1018.5
20181212092558 38 0 4.3 10.4 0.00 0.32 0.00 75 1018.4
20181212092058 38 0 4.3 10.4 0.00 0.32 0.00 74 1018.3
20181212091558 38 0 4.3 10.4 0.00 0.32 0.00 74 1018.3
20181212090100 38 0 3.5 7.8 0.00 0.32 0.00 76 1018.2
20181212085057 37 0 3.5 7.8 0.00 0.32 0.00 77 1018.0
20181212084558 37 0 5.2 7.8 0.00 0.32 0.00 77 1017.9
20181212084057 37 0 3.5 7.8 0.00 0.32 0.00 78 1017.8
20181212083558 37 0 4.3 7.8 0.00 0.32 0.00 79 1017.8
20181212083059 36 0 4.3 7.0 0.00 0.32 0.00 78 1017.7
20181212082558 36 0 4.3 7.0 0.00 0.32 0.00 79 1017.5
20181212082057 36 0 4.3 7.8 0.00 0.32 0.00 80 1017.5
20181212081559 35 0 5.2 7.8 0.00 0.32 0.00 80 1017.4
20181212081058 35 0 5.2 8.7 0.00 0.32 0.00 80 1017.4
20181212080557 35 0 4.3 8.7 0.00 0.32 0.00 80 1017.2
20181212080101 35 0 4.3 8.7 0.00 0.32 0.00 80 1017.1
20181212075558 35 0 3.5 10.4 0.00 0.32 0.00 80 1017.2
20181212075058 35 0 5.2 10.4 0.00 0.32 0.00 80 1017.1
20181212074058 35 0 5.2 7.8 0.00 0.32 0.00 81 1017.0
20181212073558 34 0 3.5 6.1 0.00 0.33 0.00 82 1017.0
20181212072558 34 0 2.6 7.0 0.00 0.33 0.00 82 1017.0
20181212071559 34 0 4.3 7.0 0.00 0.33 0.00 84 1017.0
20181212071058 34 0 4.3 6.1 0.00 0.34 0.00 85 1017.0
20181212070558 34 0 2.6 6.1 0.00 0.34 0.00 86 1016.9
20181212070101 33 0 2.6 5.2 0.00 0.35 0.00 87 1016.9
20181212065558 33 0 1.7 2.6 0.00 0.35 0.00 87 1016.8
20181212065058 33 0 0.9 2.6 0.00 0.36 0.00 86 1016.8
20181212064559 33 0 1.7 2.6 0.00 0.37 0.00 86 1016.8
20181212064058 33 0 1.7 2.6 0.00 0.37 0.00 86 1016.8
20181212063558 33 0 1.7 1.7 0.00 0.38 0.00 86 1016.8
20181212063058 33 0 1.7 2.6 0.00 0.38 0.00 86 1016.7
20181212061559 33 0 1.7 4.3 0.00 0.40 0.00 86 1016.6
20181212060102 34 0 4.3 7.8 0.00 0.42 0.00 86 1016.4
20181212055059 33 0 4.3 7.0 0.00 0.43 0.00 86 1016.3
20181212054559 33 0 5.2 7.0 0.00 0.43 0.00 87 1016.3
20181212053558 33 0 4.3 7.0 0.00 0.44 0.00 87 1016.1
20181212053058 33 0 4.3 7.0 0.00 0.44 0.00 87 1016.0
20181212052058 33 0 4.3 5.2 0.00 0.45 0.00 88 1016.0
20181212051058 33 0 2.6 5.2 0.00 0.46 0.00 88 1016.0
20181212050100 33 0 2.6 5.2 0.00 0.46 0.00 88 1016.1
20181212045558 33 0 4.3 5.2 0.00 0.46 0.00 88 1016.1
20181212045058 33 0 2.6 4.3 0.00 0.46 0.00 88 1016.1
20181212044559 34 0 2.6 6.1 0.00 0.46 0.00 88 1016.0
20181212044058 34 0 1.7 6.1 0.00 0.46 0.00 87 1016.0
20181212043558 34 0 3.5 6.1 0.00 0.46 0.00 87 1016.0
20181212043059 34 0 1.7 4.3 0.00 0.46 0.00 87 1015.9
20181212042558 34 0 1.7 4.3 0.00 0.46 0.00 86 1015.9
20181212042058 34 0 2.6 5.2 0.00 0.46 0.00 86 1015.8
20181212041559 34 0 2.6 5.2 0.00 0.46 0.00 86 1015.9
20181212041058 34 0 2.6 5.2 0.00 0.46 0.00 86 1015.8
20181212040558 34 0 1.7 4.3 0.00 0.46 0.00 85 1015.8
20181212040101 34 0 1.7 4.3 0.00 0.46 0.00 85 1015.8
20181212035558 34 0 1.7 4.3 0.00 0.46 0.00 85 1015.8
20181212035058 34 0 2.6 4.3 0.00 0.46 0.00 85 1015.8
20181212034559 34 0 1.7 5.2 0.00 0.46 0.00 85 1015.7
20181212034058 34 0 1.7 5.2 0.00 0.46 0.00 85 1015.7
20181212033558 34 0 2.6 5.2 0.00 0.46 0.00 85 1015.7
20181212033059 34 0 1.7 4.3 0.00 0.46 0.00 84 1015.7
20181212032558 34 0 0.9 4.3 0.00 0.46 0.00 84 1015.7
20181212032059 34 0 0.9 5.2 0.00 0.46 0.00 83 1015.7
20181212031559 34 0 1.7 7.0 0.00 0.46 0.00 83 1015.6
20181212031058 34 0 3.5 7.0 0.00 0.46 0.00 83 1015.5
20181212025559 35 0 2.6 5.2 0.00 0.46 0.00 82 1015.5
20181212025058 35 0 1.7 7.0 0.00 0.46 0.00 82 1015.6
20181212024559 35 0 2.6 7.0 0.00 0.46 0.00 82 1015.5
20181212024058 35 0 4.3 7.0 0.00 0.46 0.00 82 1015.5
20181212023558 35 0 4.3 7.0 0.00 0.46 0.00 81 1015.5
20181212023058 35 0 4.3 8.7 0.00 0.46 0.00 81 1015.5
20181212022558 35 0 4.3 8.7 0.00 0.46 0.00 81 1015.4
20181212022058 35 0 6.1 11.3 0.00 0.46 0.00 81 1015.4
20181212021558 35 0 5.2 11.3 0.00 0.46 0.00 80 1015.4
20181212021058 35 0 5.2 8.7 0.00 0.46 0.00 82 1015.4
20181212020558 34 0 5.2 10.4 0.00 0.46 0.00 83 1015.3
20181212020101 34 0 4.3 10.4 0.00 0.46 0.00 83 1015.3
20181212015559 34 0 6.1 10.4 0.00 0.46 0.00 83 1015.3
20181212014058 34 0 5.2 7.8 0.00 0.46 0.00 84 1015.4
20181212013058 34 0 5.2 7.8 0.00 0.46 0.00 84 1015.3
20181212012559 34 0 5.2 7.8 0.00 0.46 0.00 84 1015.3
20181212011559 34 0 5.2 7.8 0.00 0.46 0.00 84 1015.4
20181212010558 34 0 4.3 6.1 0.00 0.46 0.00 84 1015.4
20181212005559 35 0 5.2 7.8 0.00 0.46 0.00 84 1015.4
20181212005058 35 0 4.3 7.8 0.00 0.46 0.00 84 1015.4
20181212004559 35 0 3.5 7.0 0.00 0.46 0.00 84 1015.4
20181212004058 35 0 4.3 7.0 0.00 0.46 0.00 84 1015.3
20181212003558 35 0 3.5 7.0 0.00 0.46 0.00 85 1015.3
20181212003059 35 0 5.2 7.8 0.00 0.46 0.00 84 1015.2
20181212002559 35 0 4.3 7.8 0.00 0.46 0.00 85 1015.2
20181212002100 35 0 4.3 7.8 0.00 0.46 0.00 84 1015.2
20181212001059 35 0 2.6 6.1 0.00 0.46 0.00 84 1015.2
20181212000559 35 0 4.3 7.0 0.00 0.46 0.00 85 1015.2
20181211234559 35 0 4.3 7.8 0.00 0.46 0.00 85 1015.1
20181211234058 35 0 4.3 7.0 0.00 0.46 0.00 85 1015.1
20181211232559 35 0 3.5 6.1 0.00 0.46 0.00 85 1015.2
20181211232058 35 0 2.6 6.1 0.00 0.46 0.00 86 1015.1
20181211231103 35 0 3.5 6.1 0.00 0.46 0.00 86 1015.1
20181211230559 35 0 1.7 7.0 0.00 0.46 0.00 86 1015.0
20181211224058 35 0 4.3 7.8 0.00 0.46 0.46 86 1015.0
20181211223559 34 0 4.3 8.7 0.00 0.46 0.46 86 1015.0
20181211223059 34 0 4.3 8.7 0.00 0.46 0.46 86 1015.0
20181211222558 35 0 5.2 8.7 0.00 0.46 0.46 86 1015.0
20181211222059 35 0 4.3 7.8 0.00 0.46 0.46 86 1015.0